Time,TemperatureF,DewpointF,PressureIn,WindDirection,WindDirectionDegrees,WindSpeedMPH,WindSpeedGustMPH,Humidity,HourlyPrecipIn,Conditions,Clouds,dailyrainin,SoftwareType,DateUTC
2013-03-11 00:03:00,48.9,46.9,30.32,SE,137,7.0,11.0,93,0.00,,,0.00,meteohub,2013-03-11 07:03:00,
2013-03-11 00:08:00,48.9,46.9,30.32,SE,126,4.0,11.0,93,0.00,,,0.00,meteohub,2013-03-11 07:08:00,
2013-03-11 00:13:00,48.7,46.8,30.32,SE,131,4.0,10.0,93,0.00,,,0.00,meteohub,2013-03-11 07:13:00,
2013-03-11 00:18:00,48.7,46.8,30.32,SE,131,0.0,9.0,93,0.00,,,0.00,meteohub,2013-03-11 07:18:00,
2013-03-11 00:23:00,48.7,46.8,30.32,SE,131,2.0,9.0,93,0.00,,,0.00,meteohub,2013-03-11 07:23:00,
2013-03-11 00:29:00,48.7,46.8,30.31,ESE,116,5.0,5.0,93,0.00,,,0.00,meteohub,2013-03-11 07:29:00,
2013-03-11 00:34:00,48.6,46.6,30.31,ESE,114,5.0,5.0,93,0.00,,,0.00,meteohub,2013-03-11 07:34:00,
2013-03-11 00:39:00,48.6,46.6,30.31,ESE,120,3.0,7.0,93,0.00,,,0.00,meteohub,2013-03-11 07:39:00,
2013-03-11 00:45:00,48.6,46.6,30.31,ESE,118,3.0,7.0,93,0.00,,,0.00,meteohub,2013-03-11 07:45:00,
2013-03-11 00:50:00,48.6,46.6,30.31,ESE,120,4.0,7.0,93,0.00,,,0.00,meteohub,2013-03-11 07:50:00,
2013-03-11 00:55:00,48.6,46.6,30.32,ESE,119,4.0,5.0,93,0.00,,,0.00,meteohub,2013-03-11 07:55:00,
2013-03-11 01:00:00,48.6,46.6,30.30,ESE,118,4.0,7.0,93,0.00,,,0.00,meteohub,2013-03-11 08:00:00,
2013-03-11 01:05:00,48.4,46.4,30.30,ESE,116,3.0,5.0,93,0.00,,,0.00,meteohub,2013-03-11 08:05:00,
2013-03-11 01:10:00,48.4,46.4,30.30,ESE,116,3.0,7.0,93,0.00,,,0.00,meteohub,2013-03-11 08:10:00,
2013-03-11 01:15:00,48.4,46.4,30.30,SE,133,5.0,8.0,93,0.00,,,0.00,meteohub,2013-03-11 08:15:00,
2013-03-11 01:21:00,48.2,46.2,30.30,SE,125,4.0,8.0,93,0.00,,,0.00,meteohub,2013-03-11 08:21:00,
2013-03-11 01:26:00,48.2,46.2,30.30,ESE,116,5.0,8.0,93,0.00,,,0.00,meteohub,2013-03-11 08:26:00,
2013-03-11 01:31:00,48.0,46.0,30.30,ESE,112,7.0,8.0,93,0.00,,,0.00,meteohub,2013-03-11 08:31:00,
2013-03-11 01:36:00,48.0,46.0,30.30,ESE,108,2.0,8.0,93,0.00,,,0.00,meteohub,2013-03-11 08:36:00,
2013-03-11 01:41:00,48.0,46.0,30.30,ESE,122,3.0,8.0,93,0.00,,,0.00,meteohub,2013-03-11 08:41:00,
2013-03-11 01:46:00,48.0,46.0,30.30,SE,133,4.0,8.0,93,0.00,,,0.00,meteohub,2013-03-11 08:46:00,
2013-03-11 01:51:00,47.8,45.9,30.30,ESE,122,3.0,7.0,93,0.00,,,0.00,meteohub,2013-03-11 08:51:00,
2013-03-11 01:57:00,47.8,45.9,30.30,SE,127,3.0,8.0,93,0.00,,,0.00,meteohub,2013-03-11 08:57:00,
2013-03-11 02:02:00,47.8,45.9,30.30,ESE,120,5.0,8.0,93,0.00,,,0.00,meteohub,2013-03-11 09:02:00,
2013-03-11 02:07:00,47.8,46.2,30.31,ESE,119,2.0,7.0,94,0.00,,,0.00,meteohub,2013-03-11 09:07:00,
2013-03-11 02:12:00,47.8,46.2,30.31,ESE,119,2.0,6.0,94,0.00,,,0.00,meteohub,2013-03-11 09:12:00,
2013-03-11 02:17:00,47.7,46.0,30.31,ESE,120,2.0,5.0,94,0.00,,,0.00,meteohub,2013-03-11 09:17:00,
2013-03-11 02:22:00,47.7,46.0,30.31,ESE,119,4.0,4.0,94,0.00,,,0.00,meteohub,2013-03-11 09:22:00,
2013-03-11 02:28:00,47.7,46.0,30.31,ESE,119,3.0,4.0,94,0.00,,,0.00,meteohub,2013-03-11 09:28:00,
2013-03-11 02:33:00,47.7,45.7,30.31,ESE,119,4.0,4.0,93,0.00,,,0.00,meteohub,2013-03-11 09:33:00,
2013-03-11 02:38:00,47.5,45.5,30.30,ESE,118,3.0,5.0,93,0.00,,,0.00,meteohub,2013-03-11 09:38:00,
2013-03-11 02:43:00,47.5,45.5,30.30,ESE,116,3.0,5.0,93,0.00,,,0.00,meteohub,2013-03-11 09:43:00,
2013-03-11 02:48:00,47.5,45.9,30.31,ESE,110,2.0,7.0,94,0.00,,,0.00,meteohub,2013-03-11 09:48:00,
2013-03-11 02:53:00,47.5,45.9,30.31,ESE,110,4.0,7.0,94,0.00,,,0.00,meteohub,2013-03-11 09:53:00,
2013-03-11 02:58:00,47.5,45.9,30.31,ESE,110,4.0,7.0,94,0.00,,,0.00,meteohub,2013-03-11 09:58:00,
2013-03-11 03:04:00,47.5,45.9,30.30,ESE,111,2.0,5.0,94,0.00,,,0.00,meteohub,2013-03-11 10:04:00,
2013-03-11 03:09:00,47.5,45.9,30.30,ESE,119,3.0,4.0,94,0.00,,,0.00,meteohub,2013-03-11 10:09:00,
2013-03-11 03:14:00,47.3,45.7,30.30,SE,128,2.0,7.0,94,0.00,,,0.00,meteohub,2013-03-11 10:14:00,
2013-03-11 03:20:00,47.3,45.7,30.30,SE,132,1.0,7.0,94,0.00,,,0.00,meteohub,2013-03-11 10:20:00,
2013-03-11 03:25:00,47.5,45.9,30.30,SE,130,3.0,5.0,94,0.00,,,0.00,meteohub,2013-03-11 10:25:00,
2013-03-11 03:30:00,47.3,45.7,30.30,SE,129,2.0,5.0,94,0.00,,,0.00,meteohub,2013-03-11 10:30:00,
2013-03-11 03:35:00,47.3,45.7,30.30,SE,125,2.0,5.0,94,0.00,,,0.00,meteohub,2013-03-11 10:35:00,
2013-03-11 03:40:00,47.1,45.5,30.29,SE,125,3.0,4.0,94,0.00,,,0.00,meteohub,2013-03-11 10:40:00,
2013-03-11 03:45:00,47.1,45.5,30.29,SE,126,2.0,4.0,94,0.00,,,0.00,meteohub,2013-03-11 10:45:00,
2013-03-11 03:50:00,46.9,45.3,30.29,ESE,120,5.0,5.0,94,0.00,,,0.00,meteohub,2013-03-11 10:50:00,
2013-03-11 03:56:00,46.8,45.1,30.29,ESE,120,3.0,5.0,94,0.00,,,0.00,meteohub,2013-03-11 10:56:00,
2013-03-11 04:01:00,46.8,45.1,30.29,ESE,120,1.0,5.0,94,0.00,,,0.00,meteohub,2013-03-11 11:01:00,
2013-03-11 04:06:00,46.6,45.0,30.29,ESE,120,2.0,5.0,94,0.00,,,0.00,meteohub,2013-03-11 11:06:00,
2013-03-11 04:12:00,46.6,45.0,30.29,ESE,121,2.0,4.0,94,0.00,,,0.00,meteohub,2013-03-11 11:12:00,
2013-03-11 04:17:00,46.8,45.1,30.29,ESE,120,2.0,4.0,94,0.00,,,0.00,meteohub,2013-03-11 11:17:00,
2013-03-11 04:22:00,46.6,45.0,30.29,ESE,120,4.0,4.0,94,0.00,,,0.00,meteohub,2013-03-11 11:22:00,
2013-03-11 04:27:00,46.6,45.0,30.29,ESE,106,2.0,7.0,94,0.00,,,0.00,meteohub,2013-03-11 11:27:00,
2013-03-11 04:32:00,46.6,45.0,30.29,ESE,107,2.0,7.0,94,0.00,,,0.00,meteohub,2013-03-11 11:32:00,
2013-03-11 04:38:00,46.4,45.0,30.29,ESE,106,1.0,7.0,95,0.00,,,0.00,meteohub,2013-03-11 11:38:00,
2013-03-11 04:43:00,46.4,45.0,30.28,ESE,106,3.0,4.0,95,0.00,,,0.00,meteohub,2013-03-11 11:43:00,
2013-03-11 04:48:00,46.4,45.0,30.29,ESE,107,1.0,4.0,95,0.00,,,0.00,meteohub,2013-03-11 11:48:00,
2013-03-11 04:53:00,46.4,45.0,30.29,ESE,107,1.0,4.0,95,0.00,,,0.00,meteohub,2013-03-11 11:53:00,
2013-03-11 04:58:00,46.4,45.0,30.29,ESE,107,0.0,3.0,95,0.00,,,0.00,meteohub,2013-03-11 11:58:00,
2013-03-11 05:04:00,46.4,45.0,30.29,ESE,108,0.0,2.0,95,0.00,,,0.00,meteohub,2013-03-11 12:04:00,
2013-03-11 05:09:00,46.2,44.8,30.29,ESE,107,0.0,1.0,95,0.00,,,0.00,meteohub,2013-03-11 12:09:00,
2013-03-11 05:14:00,46.0,44.6,30.29,ESE,107,0.0,0.0,95,0.00,,,0.00,meteohub,2013-03-11 12:14:00,
2013-03-11 05:20:00,45.1,43.5,30.29,ESE,107,2.0,2.0,94,0.00,,,0.00,meteohub,2013-03-11 12:20:00,
2013-03-11 05:25:00,44.2,42.3,30.29,ESE,107,0.0,2.0,93,0.00,,,0.00,meteohub,2013-03-11 12:25:00,
2013-03-11 05:30:00,43.9,42.3,30.29,ESE,107,0.0,2.0,94,0.00,,,0.00,meteohub,2013-03-11 12:30:00,
2013-03-11 05:35:00,44.2,43.0,30.29,ESE,108,0.0,1.0,95,0.00,,,0.00,meteohub,2013-03-11 12:35:00,
2013-03-11 05:40:00,44.4,43.2,30.29,ESE,107,0.0,1.0,95,0.00,,,0.00,meteohub,2013-03-11 12:40:00,
2013-03-11 05:46:00,44.4,43.2,30.29,ESE,106,0.0,0.0,95,0.00,,,0.00,meteohub,2013-03-11 12:46:00,
2013-03-11 05:51:00,44.2,42.6,30.29,ESE,107,1.0,0.0,94,0.00,,,0.00,meteohub,2013-03-11 12:51:00,
2013-03-11 05:56:00,43.9,42.3,30.29,ESE,106,0.0,1.0,94,0.00,,,0.00,meteohub,2013-03-11 12:56:00,
2013-03-11 06:01:00,43.5,41.9,30.29,ESE,108,0.0,2.0,94,0.00,,,0.00,meteohub,2013-03-11 13:01:00,
2013-03-11 06:07:00,43.3,41.5,30.29,ESE,106,0.0,2.0,93,0.00,,,0.00,meteohub,2013-03-11 13:07:00,
2013-03-11 06:12:00,43.0,41.2,30.29,ESE,106,0.0,2.0,93,0.00,,,0.00,meteohub,2013-03-11 13:12:00,
2013-03-11 06:17:00,43.0,41.2,30.29,ESE,106,0.0,2.0,93,0.00,,,0.00,meteohub,2013-03-11 13:17:00,
2013-03-11 06:22:00,42.8,41.0,30.29,ESE,106,0.0,2.0,93,0.00,,,0.00,meteohub,2013-03-11 13:22:00,
2013-03-11 06:27:00,42.6,40.8,30.29,ESE,107,0.0,1.0,93,0.00,,,0.00,meteohub,2013-03-11 13:27:00,
2013-03-11 06:32:00,42.4,40.3,30.29,ESE,107,0.0,1.0,92,0.00,,,0.00,meteohub,2013-03-11 13:32:00,
2013-03-11 06:37:00,42.3,40.1,30.29,ESE,107,0.0,2.0,92,0.00,,,0.00,meteohub,2013-03-11 13:37:00,
2013-03-11 06:43:00,42.4,39.9,30.29,ESE,106,0.0,2.0,91,0.00,,,0.00,meteohub,2013-03-11 13:43:00,
2013-03-11 06:48:00,42.4,39.9,30.30,ESE,108,0.0,2.0,91,0.00,,,0.00,meteohub,2013-03-11 13:48:00,
2013-03-11 06:53:00,42.4,39.7,30.29,ESE,107,0.0,0.0,90,0.00,,,0.00,meteohub,2013-03-11 13:53:00,
2013-03-11 06:58:00,42.6,39.6,30.30,ESE,106,0.0,3.0,89,0.00,,,0.00,meteohub,2013-03-11 13:58:00,
2013-03-11 07:03:00,42.4,39.4,30.30,ESE,106,0.0,3.0,89,0.00,,,0.00,meteohub,2013-03-11 14:03:00,
2013-03-11 07:09:00,42.3,39.0,30.30,ESE,107,1.0,3.0,88,0.00,,,0.00,meteohub,2013-03-11 14:09:00,
2013-03-11 07:14:00,42.3,39.0,30.30,ESE,106,0.0,0.0,88,0.00,,,0.00,meteohub,2013-03-11 14:14:00,
2013-03-11 07:19:00,42.1,38.5,30.30,ESE,108,0.0,1.0,87,0.00,,,0.00,meteohub,2013-03-11 14:19:00,
2013-03-11 07:25:00,42.3,38.7,30.30,ESE,106,0.0,1.0,87,0.00,,,0.00,meteohub,2013-03-11 14:25:00,
2013-03-11 07:30:00,42.3,38.3,30.30,ESE,106,1.0,2.0,86,0.00,,,0.00,meteohub,2013-03-11 14:30:00,
2013-03-11 07:35:00,42.4,38.3,30.30,ESE,108,0.0,3.0,85,0.00,,,0.00,meteohub,2013-03-11 14:35:00,
2013-03-11 07:40:00,42.4,38.3,30.30,ESE,105,0.0,3.0,85,0.00,,,0.00,meteohub,2013-03-11 14:40:00,
2013-03-11 07:46:00,42.3,38.1,30.30,ESE,107,0.0,3.0,85,0.00,,,0.00,meteohub,2013-03-11 14:46:00,
2013-03-11 07:51:00,42.3,38.3,30.30,ESE,106,0.0,2.0,86,0.00,,,0.00,meteohub,2013-03-11 14:51:00,
2013-03-11 07:56:00,42.3,38.3,30.30,ESE,105,0.0,2.0,86,0.00,,,0.00,meteohub,2013-03-11 14:56:00,
2013-03-11 08:01:00,42.4,38.5,30.30,ESE,106,0.0,0.0,86,0.00,,,0.00,meteohub,2013-03-11 15:01:00,
2013-03-11 08:06:00,42.6,38.5,30.30,ESE,106,0.0,0.0,85,0.00,,,0.00,meteohub,2013-03-11 15:06:00,
2013-03-11 08:12:00,42.8,38.7,30.31,ESE,107,0.0,1.0,85,0.00,,,0.00,meteohub,2013-03-11 15:12:00,
2013-03-11 08:17:00,43.2,39.0,30.30,ESE,102,1.0,2.0,85,0.00,,,0.00,meteohub,2013-03-11 15:17:00,
2013-03-11 08:22:00,43.5,39.0,30.30,East,100,2.0,2.0,84,0.00,,,0.00,meteohub,2013-03-11 15:22:00,
2013-03-11 08:28:00,44.2,40.1,30.30,East,99,0.0,2.0,85,0.00,,,0.00,meteohub,2013-03-11 15:28:00,
2013-03-11 08:33:00,45.0,40.6,30.30,ESE,102,1.0,2.0,85,0.00,,,0.00,meteohub,2013-03-11 15:33:00,
2013-03-11 08:38:00,45.7,41.2,30.30,East,100,0.0,2.0,84,0.00,,,0.00,meteohub,2013-03-11 15:38:00,
2013-03-11 08:43:00,46.2,41.7,30.30,East,100,1.0,2.0,84,0.00,,,0.00,meteohub,2013-03-11 15:43:00,
2013-03-11 08:48:00,46.6,42.1,30.30,ESE,102,1.0,2.0,84,0.00,,,0.00,meteohub,2013-03-11 15:48:00,
2013-03-11 08:53:00,46.9,42.4,30.30,East,99,0.0,2.0,84,0.00,,,0.00,meteohub,2013-03-11 15:53:00,
2013-03-11 08:58:00,47.7,43.0,30.30,East,88,2.0,2.0,84,0.00,,,0.00,meteohub,2013-03-11 15:58:00,
2013-03-11 09:04:00,47.8,42.6,30.30,NNE,21,3.0,3.0,82,0.00,,,0.00,meteohub,2013-03-11 16:04:00,
2013-03-11 09:09:00,48.4,43.2,30.30,NNE,20,2.0,5.0,82,0.00,,,0.00,meteohub,2013-03-11 16:09:00,
2013-03-11 09:14:00,48.7,42.8,30.30,North,359,2.0,5.0,80,0.00,,,0.00,meteohub,2013-03-11 16:14:00,
2013-03-11 09:19:00,48.9,43.0,30.30,NNW,348,4.0,5.0,80,0.00,,,0.00,meteohub,2013-03-11 16:19:00,
2013-03-11 09:24:00,49.1,43.2,30.30,NNW,334,4.0,5.0,80,0.00,,,0.00,meteohub,2013-03-11 16:24:00,
2013-03-11 09:29:00,49.5,43.5,30.30,NNW,332,0.0,6.0,80,0.00,,,0.00,meteohub,2013-03-11 16:29:00,
2013-03-11 09:35:00,49.8,43.5,30.30,NNW,332,2.0,6.0,79,0.00,,,0.00,meteohub,2013-03-11 16:35:00,
2013-03-11 09:40:00,50.4,42.8,30.30,NNW,333,2.0,6.0,75,0.00,,,0.00,meteohub,2013-03-11 16:40:00,
2013-03-11 09:45:00,50.5,43.0,30.30,NW,318,1.0,4.0,75,0.00,,,0.00,meteohub,2013-03-11 16:45:00,
2013-03-11 09:50:00,51.1,43.7,30.31,NW,318,3.0,5.0,76,0.00,,,0.00,meteohub,2013-03-11 16:50:00,
2013-03-11 09:56:00,51.6,44.6,30.30,NW,318,2.0,5.0,77,0.00,,,0.00,meteohub,2013-03-11 16:56:00,
2013-03-11 10:01:00,52.0,45.0,30.31,NW,318,2.0,4.0,77,0.00,,,0.00,meteohub,2013-03-11 17:01:00,
2013-03-11 10:06:00,52.2,45.1,30.30,NW,317,0.0,4.0,77,0.00,,,0.00,meteohub,2013-03-11 17:06:00,
2013-03-11 10:11:00,52.7,45.7,30.30,NW,318,0.0,4.0,77,0.00,,,0.00,meteohub,2013-03-11 17:11:00,
2013-03-11 10:17:00,52.9,45.5,30.30,NW,318,1.0,3.0,76,0.00,,,0.00,meteohub,2013-03-11 17:17:00,
2013-03-11 10:22:00,53.2,45.9,30.30,NW,318,1.0,3.0,76,0.00,,,0.00,meteohub,2013-03-11 17:22:00,
2013-03-11 10:27:00,53.6,45.9,30.30,NW,317,1.0,3.0,75,0.00,,,0.00,meteohub,2013-03-11 17:27:00,
2013-03-11 10:32:00,54.1,46.4,30.30,NW,316,2.0,3.0,75,0.00,,,0.00,meteohub,2013-03-11 17:32:00,
2013-03-11 10:37:00,54.3,46.2,30.30,NW,312,0.0,4.0,74,0.00,,,0.00,meteohub,2013-03-11 17:37:00,
2013-03-11 10:43:00,54.7,46.6,30.30,NW,311,0.0,4.0,74,0.00,,,0.00,meteohub,2013-03-11 17:43:00,
2013-03-11 10:48:00,54.9,46.4,30.30,NW,311,0.0,4.0,73,0.00,,,0.00,meteohub,2013-03-11 17:48:00,
2013-03-11 10:53:00,55.2,46.4,30.30,NW,324,5.0,5.0,72,0.00,,,0.00,meteohub,2013-03-11 17:53:00,
2013-03-11 10:58:00,55.4,47.3,30.30,NW,304,5.0,5.0,74,0.00,,,0.00,meteohub,2013-03-11 17:58:00,
2013-03-11 11:03:00,55.6,47.5,30.30,WNW,285,6.0,7.0,74,0.00,,,0.00,meteohub,2013-03-11 18:03:00,
2013-03-11 11:08:00,55.4,47.7,30.30,NW,320,6.0,8.0,75,0.00,,,0.00,meteohub,2013-03-11 18:08:00,
2013-03-11 11:13:00,55.2,47.5,30.30,NW,307,2.0,8.0,75,0.00,,,0.00,meteohub,2013-03-11 18:13:00,
2013-03-11 11:19:00,55.6,47.8,30.30,WNW,298,6.0,8.0,75,0.00,,,0.00,meteohub,2013-03-11 18:19:00,
2013-03-11 11:24:00,55.4,48.0,30.30,NW,319,6.0,9.0,76,0.00,,,0.00,meteohub,2013-03-11 18:24:00,
2013-03-11 11:29:00,55.6,47.8,30.30,NNW,337,7.0,9.0,75,0.00,,,0.00,meteohub,2013-03-11 18:29:00,
2013-03-11 11:34:00,55.4,47.3,30.29,NNW,329,3.0,9.0,74,0.00,,,0.00,meteohub,2013-03-11 18:34:00,
2013-03-11 11:39:00,55.8,47.7,30.30,North,359,5.0,8.0,74,0.00,,,0.00,meteohub,2013-03-11 18:39:00,
2013-03-11 11:44:00,56.1,47.7,30.30,NNW,341,5.0,8.0,73,0.00,,,0.00,meteohub,2013-03-11 18:44:00,
2013-03-11 11:49:00,56.5,48.0,30.29,WNW,291,6.0,9.0,73,0.00,,,0.00,meteohub,2013-03-11 18:49:00,
2013-03-11 11:54:00,56.5,48.0,30.29,NW,305,3.0,9.0,73,0.00,,,0.00,meteohub,2013-03-11 18:54:00,
2013-03-11 12:00:00,57.2,48.2,30.29,North,349,5.0,8.0,72,0.00,,,0.00,meteohub,2013-03-11 19:00:00,
2013-03-11 12:05:00,57.9,48.2,30.29,NNW,332,5.0,8.0,70,0.00,,,0.00,meteohub,2013-03-11 19:05:00,
2013-03-11 12:10:00,58.5,48.7,30.28,NW,309,5.0,8.0,70,0.00,,,0.00,meteohub,2013-03-11 19:10:00,
2013-03-11 12:16:00,59.2,48.6,30.28,WNW,298,3.0,8.0,68,0.00,,,0.00,meteohub,2013-03-11 19:16:00,
2013-03-11 12:21:00,59.9,48.9,30.27,NW,320,2.0,8.0,67,0.00,,,0.00,meteohub,2013-03-11 19:21:00,
2013-03-11 12:26:00,60.6,49.3,30.27,NW,312,5.0,8.0,66,0.00,,,0.00,meteohub,2013-03-11 19:26:00,
2013-03-11 12:31:00,61.0,49.1,30.27,NW,310,3.0,8.0,65,0.00,,,0.00,meteohub,2013-03-11 19:31:00,
2013-03-11 12:36:00,61.3,49.1,30.27,WNW,294,6.0,10.0,64,0.00,,,0.00,meteohub,2013-03-11 19:36:00,
2013-03-11 12:42:00,61.5,49.3,30.26,WNW,301,5.0,10.0,64,0.00,,,0.00,meteohub,2013-03-11 19:42:00,
2013-03-11 12:47:00,62.1,49.3,30.26,WNW,286,8.0,10.0,63,0.00,,,0.00,meteohub,2013-03-11 19:47:00,
2013-03-11 12:52:00,62.2,49.1,30.25,West,280,4.0,10.0,62,0.00,,,0.00,meteohub,2013-03-11 19:52:00,
2013-03-11 12:57:00,62.4,48.7,30.25,WNW,301,4.0,10.0,61,0.00,,,0.00,meteohub,2013-03-11 19:57:00,
2013-03-11 13:02:00,63.0,48.9,30.25,NW,312,3.0,10.0,60,0.00,,,0.00,meteohub,2013-03-11 20:02:00,
2013-03-11 13:08:00,63.3,48.7,30.25,NW,306,6.0,9.0,59,0.00,,,0.00,meteohub,2013-03-11 20:08:00,
2013-03-11 13:13:00,64.2,48.7,30.25,WNW,303,8.0,9.0,57,0.00,,,0.00,meteohub,2013-03-11 20:13:00,
2013-03-11 13:18:00,64.0,48.6,30.24,WNW,297,7.0,9.0,57,0.00,,,0.00,meteohub,2013-03-11 20:18:00,
2013-03-11 13:23:00,64.2,48.7,30.24,NW,310,6.0,11.0,57,0.00,,,0.00,meteohub,2013-03-11 20:23:00,
2013-03-11 13:28:00,64.6,48.6,30.24,WNW,282,8.0,11.0,56,0.00,,,0.00,meteohub,2013-03-11 20:28:00,
2013-03-11 13:34:00,64.9,48.9,30.24,WNW,282,3.0,11.0,56,0.00,,,0.00,meteohub,2013-03-11 20:34:00,
2013-03-11 13:39:00,65.7,49.1,30.24,West,270,9.0,9.0,55,0.00,,,0.00,meteohub,2013-03-11 20:39:00,
2013-03-11 13:44:00,65.7,48.6,30.23,WNW,282,4.0,8.0,54,0.00,,,0.00,meteohub,2013-03-11 20:44:00,
2013-03-11 13:50:00,66.0,48.4,30.23,West,271,9.0,10.0,53,0.00,,,0.00,meteohub,2013-03-11 20:50:00,
2013-03-11 13:55:00,65.8,47.7,30.23,WNW,297,5.0,12.0,52,0.00,,,0.00,meteohub,2013-03-11 20:55:00,
2013-03-11 14:00:00,65.8,46.2,30.23,WNW,283,5.0,12.0,49,0.00,,,0.00,meteohub,2013-03-11 21:00:00,
2013-03-11 14:05:00,65.8,46.8,30.23,NW,309,5.0,12.0,50,0.00,,,0.00,meteohub,2013-03-11 21:05:00,
2013-03-11 14:10:00,66.4,46.0,30.23,NW,305,3.0,11.0,48,0.00,,,0.00,meteohub,2013-03-11 21:10:00,
2013-03-11 14:15:00,66.7,46.4,30.23,NW,308,5.0,8.0,48,0.00,,,0.00,meteohub,2013-03-11 21:15:00,
2013-03-11 14:20:00,67.6,45.5,30.22,WSW,249,7.0,8.0,45,0.00,,,0.00,meteohub,2013-03-11 21:20:00,
2013-03-11 14:26:00,67.8,45.7,30.22,West,261,1.0,8.0,45,0.00,,,0.00,meteohub,2013-03-11 21:26:00,
2013-03-11 14:31:00,68.4,46.8,30.22,WSW,256,4.0,8.0,46,0.00,,,0.00,meteohub,2013-03-11 21:31:00,
2013-03-11 14:36:00,68.9,45.5,30.22,West,260,8.0,8.0,43,0.00,,,0.00,meteohub,2013-03-11 21:36:00,
2013-03-11 14:42:00,68.2,47.7,30.22,SSE,156,8.0,8.0,48,0.00,,,0.00,meteohub,2013-03-11 21:42:00,
2013-03-11 14:47:00,65.5,47.8,30.21,SSE,158,6.0,10.0,53,0.00,,,0.00,meteohub,2013-03-11 21:47:00,
2013-03-11 14:52:00,64.2,47.7,30.21,SE,139,7.0,10.0,55,0.00,,,0.00,meteohub,2013-03-11 21:52:00,
2013-03-11 14:57:00,63.0,48.0,30.21,SSE,148,6.0,10.0,58,0.00,,,0.00,meteohub,2013-03-11 21:57:00,
2013-03-11 15:02:00,62.8,48.2,30.21,SSE,158,8.0,13.0,59,0.00,,,0.00,meteohub,2013-03-11 22:02:00,
2013-03-11 15:08:00,62.1,48.0,30.21,SE,131,8.0,13.0,60,0.00,,,0.00,meteohub,2013-03-11 22:08:00,
2013-03-11 15:13:00,62.2,48.6,30.21,SE,142,5.0,13.0,61,0.00,,,0.00,meteohub,2013-03-11 22:13:00,
2013-03-11 15:18:00,62.4,49.6,30.21,East,100,6.0,10.0,63,0.00,,,0.00,meteohub,2013-03-11 22:18:00,
2013-03-11 15:24:00,62.4,50.0,30.21,SSE,152,3.0,9.0,64,0.00,,,0.00,meteohub,2013-03-11 22:24:00,
2013-03-11 15:29:00,62.1,50.2,30.21,SE,127,4.0,9.0,65,0.00,,,0.00,meteohub,2013-03-11 22:29:00,
2013-03-11 15:34:00,61.5,50.5,30.20,South,185,7.0,10.0,67,0.00,,,0.00,meteohub,2013-03-11 22:34:00,
2013-03-11 15:39:00,61.5,48.7,30.21,South,169,6.0,10.0,63,0.00,,,0.00,meteohub,2013-03-11 22:39:00,
2013-03-11 15:44:00,62.1,48.9,30.21,South,176,5.0,10.0,62,0.00,,,0.00,meteohub,2013-03-11 22:44:00,
2013-03-11 15:49:00,62.4,48.7,30.20,South,172,4.0,10.0,61,0.00,,,0.00,meteohub,2013-03-11 22:49:00,
2013-03-11 15:54:00,62.1,48.9,30.20,South,170,7.0,8.0,62,0.00,,,0.00,meteohub,2013-03-11 22:54:00,
2013-03-11 15:59:00,61.5,48.7,30.20,South,185,6.0,8.0,63,0.00,,,0.00,meteohub,2013-03-11 22:59:00,
2013-03-11 16:04:00,61.3,49.5,30.20,South,176,7.0,9.0,65,0.00,,,0.00,meteohub,2013-03-11 23:04:00,
2013-03-11 16:10:00,61.3,49.1,30.20,SE,146,6.0,9.0,64,0.00,,,0.00,meteohub,2013-03-11 23:10:00,
2013-03-11 16:15:00,61.3,48.2,30.20,South,185,3.0,9.0,62,0.00,,,0.00,meteohub,2013-03-11 23:15:00,
2013-03-11 16:20:00,61.5,49.3,30.19,South,189,6.0,9.0,64,0.00,,,0.00,meteohub,2013-03-11 23:20:00,
2013-03-11 16:25:00,61.3,48.6,30.19,SSW,198,7.0,9.0,63,0.00,,,0.00,meteohub,2013-03-11 23:25:00,
2013-03-11 16:31:00,60.8,48.6,30.19,South,185,7.0,9.0,64,0.00,,,0.00,meteohub,2013-03-11 23:31:00,
2013-03-11 16:36:00,60.3,48.9,30.19,SSW,193,5.0,9.0,66,0.00,,,0.00,meteohub,2013-03-11 23:36:00,
2013-03-11 16:42:00,60.3,49.3,30.19,SSE,164,6.0,9.0,67,0.00,,,0.00,meteohub,2013-03-11 23:42:00,
2013-03-11 16:47:00,60.3,48.9,30.19,South,183,6.0,9.0,66,0.00,,,0.00,meteohub,2013-03-11 23:47:00,
2013-03-11 16:52:00,60.3,48.4,30.19,South,190,9.0,9.0,65,0.00,,,0.00,meteohub,2013-03-11 23:52:00,
2013-03-11 16:57:00,59.5,48.6,30.19,South,177,10.0,10.0,67,0.00,,,0.00,meteohub,2013-03-11 23:57:00,
2013-03-11 17:02:00,59.5,49.3,30.19,SSW,197,9.0,10.0,69,0.00,,,0.00,meteohub,2013-03-12 00:02:00,
2013-03-11 17:08:00,58.6,48.9,30.18,SSW,193,7.0,10.0,70,0.00,,,0.00,meteohub,2013-03-12 00:08:00,
2013-03-11 17:13:00,57.7,48.7,30.18,South,177,5.0,10.0,72,0.00,,,0.00,meteohub,2013-03-12 00:13:00,
2013-03-11 17:18:00,57.6,49.3,30.18,SSW,192,7.0,11.0,74,0.00,,,0.00,meteohub,2013-03-12 00:18:00,
2013-03-11 17:23:00,57.2,48.9,30.18,South,186,6.0,11.0,74,0.00,,,0.00,meteohub,2013-03-12 00:23:00,
2013-03-11 17:29:00,57.0,48.7,30.18,SSE,164,7.0,11.0,74,0.00,,,0.00,meteohub,2013-03-12 00:29:00,
2013-03-11 17:34:00,57.0,49.1,30.17,South,189,7.0,10.0,75,0.00,,,0.00,meteohub,2013-03-12 00:34:00,
2013-03-11 17:39:00,57.4,49.5,30.17,South,179,6.0,10.0,75,0.00,,,0.00,meteohub,2013-03-12 00:39:00,
2013-03-11 17:44:00,57.6,49.3,30.17,SSE,147,1.0,10.0,74,0.00,,,0.00,meteohub,2013-03-12 00:44:00,
2013-03-11 17:49:00,57.6,49.3,30.17,SSE,167,6.0,9.0,74,0.00,,,0.00,meteohub,2013-03-12 00:49:00,
2013-03-11 17:55:00,57.4,49.1,30.17,South,181,1.0,9.0,74,0.00,,,0.00,meteohub,2013-03-12 00:55:00,
2013-03-11 18:00:00,57.2,49.3,30.17,SE,133,5.0,9.0,75,0.00,,,0.00,meteohub,2013-03-12 01:00:00,
2013-03-11 18:05:00,56.8,48.9,30.17,SE,139,6.0,10.0,75,0.00,,,0.00,meteohub,2013-03-12 01:05:00,
2013-03-11 18:10:00,56.5,49.3,30.17,SE,128,7.0,10.0,77,0.00,,,0.00,meteohub,2013-03-12 01:10:00,
2013-03-11 18:16:00,55.6,49.1,30.17,SE,130,10.0,12.0,79,0.00,,,0.00,meteohub,2013-03-12 01:16:00,
2013-03-11 18:21:00,55.0,49.3,30.17,SE,142,4.0,12.0,81,0.00,,,0.00,meteohub,2013-03-12 01:21:00,
2013-03-11 18:27:00,55.0,49.6,30.17,SE,142,7.0,12.0,82,0.00,,,0.00,meteohub,2013-03-12 01:27:00,
2013-03-11 18:32:00,54.9,49.5,30.17,SE,133,5.0,12.0,82,0.00,,,0.00,meteohub,2013-03-12 01:32:00,
2013-03-11 18:37:00,54.9,49.8,30.17,ESE,120,8.0,12.0,83,0.00,,,0.00,meteohub,2013-03-12 01:37:00,
2013-03-11 18:42:00,54.7,49.6,30.17,ESE,123,6.0,12.0,83,0.00,,,0.00,meteohub,2013-03-12 01:42:00,
2013-03-11 18:47:00,54.3,49.6,30.17,SSE,155,7.0,12.0,84,0.00,,,0.00,meteohub,2013-03-12 01:47:00,
2013-03-11 18:53:00,54.3,49.6,30.17,SE,144,6.0,12.0,84,0.00,,,0.00,meteohub,2013-03-12 01:53:00,
2013-03-11 18:58:00,54.1,49.5,30.17,SE,145,8.0,12.0,84,0.00,,,0.00,meteohub,2013-03-12 01:58:00,
2013-03-11 19:03:00,54.0,49.6,30.16,SE,129,4.0,12.0,85,0.00,,,0.00,meteohub,2013-03-12 02:03:00,
2013-03-11 19:08:00,53.4,49.3,30.16,SE,142,8.0,12.0,86,0.00,,,0.00,meteohub,2013-03-12 02:08:00,
2013-03-11 19:13:00,53.1,49.3,30.16,SE,134,8.0,12.0,87,0.00,,,0.00,meteohub,2013-03-12 02:13:00,
2013-03-11 19:18:00,53.1,49.3,30.16,SSE,162,7.0,11.0,87,0.00,,,0.00,meteohub,2013-03-12 02:18:00,
2013-03-11 19:24:00,52.9,49.1,30.16,SSE,164,7.0,11.0,87,0.00,,,0.00,meteohub,2013-03-12 02:24:00,
2013-03-11 19:29:00,52.5,49.1,30.17,South,174,6.0,11.0,88,0.00,,,0.00,meteohub,2013-03-12 02:29:00,
2013-03-11 19:34:00,52.2,48.7,30.16,SE,142,6.0,11.0,88,0.00,,,0.00,meteohub,2013-03-12 02:34:00,
2013-03-11 19:39:00,52.0,48.9,30.17,South,184,9.0,11.0,89,0.00,,,0.00,meteohub,2013-03-12 02:39:00,
2013-03-11 19:44:00,51.6,48.7,30.17,South,171,5.0,12.0,90,0.00,,,0.00,meteohub,2013-03-12 02:44:00,
2013-03-11 19:50:00,51.4,48.6,30.17,SSE,163,9.0,12.0,90,0.00,,,0.00,meteohub,2013-03-12 02:50:00,
2013-03-11 19:55:00,51.1,48.6,30.17,South,187,9.0,13.0,91,0.00,,,0.00,meteohub,2013-03-12 02:55:00,
2013-03-11 20:00:00,50.9,48.4,30.17,SSW,195,10.0,14.0,91,0.00,,,0.00,meteohub,2013-03-12 03:00:00,
2013-03-11 20:05:00,50.7,48.2,30.17,South,172,11.0,16.0,91,0.00,,,0.00,meteohub,2013-03-12 03:05:00,
2013-03-11 20:10:00,50.5,48.4,30.17,South,189,6.0,16.0,92,0.00,,,0.00,meteohub,2013-03-12 03:10:00,
2013-03-11 20:15:00,50.5,48.4,30.17,South,191,10.0,16.0,92,0.00,,,0.00,meteohub,2013-03-12 03:15:00,
2013-03-11 20:20:00,50.5,48.6,30.17,SSE,168,8.0,16.0,93,0.00,,,0.00,meteohub,2013-03-12 03:20:00,
2013-03-11 20:25:00,50.5,48.6,30.17,SSE,168,6.0,16.0,93,0.00,,,0.00,meteohub,2013-03-12 03:25:00,
2013-03-11 20:31:00,50.4,48.4,30.17,South,176,6.0,16.0,93,0.00,,,0.00,meteohub,2013-03-12 03:31:00,
2013-03-11 20:36:00,50.4,48.4,30.17,SSW,195,11.0,13.0,93,0.00,,,0.00,meteohub,2013-03-12 03:36:00,
2013-03-11 20:41:00,50.4,48.4,30.17,SSE,163,7.0,13.0,93,0.00,,,0.00,meteohub,2013-03-12 03:41:00,
2013-03-11 20:47:00,50.5,48.6,30.17,SSE,162,6.0,13.0,93,0.00,,,0.00,meteohub,2013-03-12 03:47:00,
2013-03-11 20:52:00,50.5,48.6,30.17,South,176,5.0,12.0,93,0.00,,,0.00,meteohub,2013-03-12 03:52:00,
2013-03-11 20:57:00,50.5,48.6,30.17,SSE,160,6.0,11.0,93,0.00,,,0.00,meteohub,2013-03-12 03:57:00,
2013-03-11 21:00:00,50.5,48.6,30.17,South,175,5.0,11.0,93,0.00,,,0.00,meteohub,2013-03-12 04:00:00,
2013-03-11 21:02:00,50.5,48.6,30.17,SSE,162,5.0,11.0,93,0.00,,,0.00,meteohub,2013-03-12 04:02:00,
2013-03-11 21:07:00,50.5,48.6,30.17,South,183,7.0,11.0,93,0.00,,,0.00,meteohub,2013-03-12 04:07:00,
2013-03-11 21:13:00,50.5,48.6,30.17,SSW,193,5.0,12.0,93,0.00,,,0.00,meteohub,2013-03-12 04:13:00,
2013-03-11 21:18:00,50.4,48.4,30.17,South,172,7.0,12.0,93,0.00,,,0.00,meteohub,2013-03-12 04:18:00,
2013-03-11 21:23:00,50.4,48.4,30.18,South,189,6.0,12.0,93,0.00,,,0.00,meteohub,2013-03-12 04:23:00,
2013-03-11 21:28:00,50.4,48.4,30.18,SSW,200,7.0,11.0,93,0.00,,,0.00,meteohub,2013-03-12 04:28:00,
2013-03-11 21:34:00,50.2,48.2,30.18,SSW,206,9.0,11.0,93,0.00,,,0.00,meteohub,2013-03-12 04:34:00,
2013-03-11 21:39:00,50.2,48.2,30.18,South,181,5.0,12.0,93,0.00,,,0.00,meteohub,2013-03-12 04:39:00,
2013-03-11 21:44:00,50.0,48.0,30.18,South,189,8.0,13.0,93,0.00,,,0.00,meteohub,2013-03-12 04:44:00,
2013-03-11 21:49:00,50.0,48.0,30.18,SSW,212,11.0,13.0,93,0.00,,,0.00,meteohub,2013-03-12 04:49:00,
2013-03-11 21:54:00,49.8,47.8,30.18,SSW,194,5.0,13.0,93,0.00,,,0.00,meteohub,2013-03-12 04:54:00,
2013-03-11 22:00:00,50.0,48.4,30.18,South,191,9.0,12.0,94,0.00,,,0.00,meteohub,2013-03-12 05:00:00,
2013-03-11 22:05:00,49.8,48.2,30.18,SSW,199,6.0,12.0,94,0.00,,,0.00,meteohub,2013-03-12 05:05:00,
2013-03-11 22:10:00,49.8,48.2,30.18,SSW,197,7.0,12.0,94,0.00,,,0.00,meteohub,2013-03-12 05:10:00,
2013-03-11 22:15:00,50.0,48.4,30.18,SSW,195,8.0,12.0,94,0.00,,,0.00,meteohub,2013-03-12 05:15:00,
2013-03-11 22:21:00,50.0,48.4,30.18,SSW,201,8.0,14.0,94,0.00,,,0.00,meteohub,2013-03-12 05:21:00,
2013-03-11 22:26:00,50.0,48.4,30.18,South,187,10.0,14.0,94,0.00,,,0.00,meteohub,2013-03-12 05:26:00,
2013-03-11 22:31:00,50.0,48.0,30.18,SSW,206,10.0,14.0,93,0.00,,,0.00,meteohub,2013-03-12 05:31:00,
2013-03-11 22:36:00,50.0,48.0,30.18,South,179,6.0,14.0,93,0.00,,,0.00,meteohub,2013-03-12 05:36:00,
2013-03-11 22:42:00,50.0,48.0,30.18,SSW,194,5.0,14.0,93,0.00,,,0.00,meteohub,2013-03-12 05:42:00,
2013-03-11 22:47:00,49.8,47.8,30.18,South,178,11.0,13.0,93,0.00,,,0.00,meteohub,2013-03-12 05:47:00,
2013-03-11 22:52:00,49.8,48.2,30.18,SSW,198,4.0,13.0,94,0.00,,,0.00,meteohub,2013-03-12 05:52:00,
2013-03-11 22:57:00,49.8,48.2,30.18,SSW,195,3.0,13.0,94,0.00,,,0.00,meteohub,2013-03-12 05:57:00,
2013-03-11 23:02:00,49.8,48.2,30.18,SSW,194,9.0,13.0,94,0.00,,,0.00,meteohub,2013-03-12 06:02:00,
2013-03-11 23:07:00,49.8,47.8,30.19,SSW,205,7.0,13.0,93,0.00,,,0.00,meteohub,2013-03-12 06:07:00,
2013-03-11 23:12:00,49.8,48.2,30.19,SSW,192,5.0,13.0,94,0.00,,,0.00,meteohub,2013-03-12 06:12:00,
2013-03-11 23:17:00,49.8,48.2,30.19,South,189,9.0,13.0,94,0.00,,,0.00,meteohub,2013-03-12 06:17:00,
2013-03-11 23:23:00,49.8,48.2,30.19,SSE,164,11.0,13.0,94,0.00,,,0.00,meteohub,2013-03-12 06:23:00,
2013-03-11 23:28:00,49.8,48.2,30.18,South,174,4.0,13.0,94,0.00,,,0.00,meteohub,2013-03-12 06:28:00,
2013-03-11 23:33:00,49.8,48.2,30.19,South,185,7.0,14.0,94,0.00,,,0.00,meteohub,2013-03-12 06:33:00,
2013-03-11 23:38:00,49.8,48.2,30.19,South,189,5.0,14.0,94,0.00,,,0.00,meteohub,2013-03-12 06:38:00,
2013-03-11 23:43:00,49.6,48.0,30.18,South,179,4.0,12.0,94,0.00,,,0.00,meteohub,2013-03-12 06:43:00,
2013-03-11 23:48:00,49.6,48.0,30.18,South,181,8.0,12.0,94,0.00,,,0.00,meteohub,2013-03-12 06:48:00,
2013-03-11 23:53:00,49.6,48.0,30.18,South,187,9.0,12.0,94,0.00,,,0.00,meteohub,2013-03-12 06:53:00,
2013-03-11 23:58:00,49.5,47.8,30.18,South,189,8.0,13.0,94,0.00,,,0.00,meteohub,2013-03-12 06:58:00,